Simultaneous Nadir Overpasses (SNOs) Predictions

Prediction of SNOs between GOES-16 and NOAA-19 Satellite Orbit:

Table of predicted SNOs for the next 14.0 days since TLE Epoch: 10/29/2022
Index Date Time (GOES-16) GOES-16 Lat,Lon NOAA-19 Lat,Lon Distance(km) Time Diff (sec)
1 10/29/2022 12:55:23 -0.06, -75.20 -0.78, -72.07 357.21 80
2 11/01/2022 01:13:16 0.05, -75.19 -0.37, -76.94 199.76 80
3 11/02/2022 01:04:03 0.05, -75.20 0.30, -74.04 131.80 80
4 11/03/2022 00:52:09 0.05, -75.20 0.98, -71.14 463.57 80
5 11/04/2022 13:21:45 -0.05, -75.23 0.78, -78.87 415.54 80
6 11/05/2022 13:09:50 -0.05, -75.24 0.14, -75.96 83.08 80
7 11/06/2022 13:00:37 -0.05, -75.26 -0.55, -73.07 249.65 80
8 11/09/2022 01:21:11 0.04, -75.29 -0.56, -77.95 304.16 80
9 11/10/2022 01:06:37 0.04, -75.30 0.07, -75.04 28.95 80
10 11/11/2022 00:54:44 0.04, -75.32 0.77, -72.15 361.91 80
